Time,TemperatureF,DewpointF,PressureIn,WindDirection,WindDirectionDegrees,WindSpeedMPH,WindSpeedGustMPH,Humidity,HourlyPrecipIn,Conditions,Clouds,dailyrainin,SoftwareType,DateUTC
2013-08-06 00:02:00,70.9,55.9,29.88,North,0,0.0,0.0,59,0.00,,,0.00,WUHU216HW,2013-08-06 07:02:00,
2013-08-06 00:07:00,70.9,55.9,29.88,North,0,0.0,0.0,59,0.00,,,0.00,WUHU216HW,2013-08-06 07:07:00,
2013-08-06 00:12:00,70.7,55.7,29.87,North,0,0.0,0.0,59,0.00,,,0.00,WUHU216HW,2013-08-06 07:12:00,
2013-08-06 00:17:00,70.7,56.3,29.87,North,0,0.0,0.0,60,0.00,,,0.00,WUHU216HW,2013-08-06 07:17:00,
2013-08-06 00:22:00,70.9,56.9,29.87,North,0,0.0,0.0,61,0.00,,,0.00,WUHU216HW,2013-08-06 07:22:00,
2013-08-06 00:27:00,71.1,56.6,29.87,North,0,0.0,0.0,60,0.00,,,0.00,WUHU216HW,2013-08-06 07:27:00,
2013-08-06 00:32:00,71.1,56.6,29.87,North,0,0.0,0.0,60,0.00,,,0.00,WUHU216HW,2013-08-06 07:32:00,
2013-08-06 00:37:00,71.3,56.3,29.87,North,0,0.0,0.0,59,0.00,,,0.00,WUHU216HW,2013-08-06 07:37:00,
2013-08-06 00:42:00,70.9,55.9,29.87,North,0,0.0,0.0,59,0.00,,,0.00,WUHU216HW,2013-08-06 07:42:00,
2013-08-06 00:47:00,70.7,55.7,29.87,North,0,0.0,0.0,59,0.00,,,0.00,WUHU216HW,2013-08-06 07:47:00,
2013-08-06 00:52:00,70.6,55.6,29.87,North,0,0.0,0.0,59,0.00,,,0.00,WUHU216HW,2013-08-06 07:52:00,
2013-08-06 00:57:00,70.4,54.9,29.87,North,0,0.0,0.0,58,0.00,,,0.00,WUHU216HW,2013-08-06 07:57:00,
2013-08-06 01:02:00,70.0,55.1,29.87,North,0,0.0,0.0,59,0.00,,,0.00,WUHU216HW,2013-08-06 08:02:00,
2013-08-06 01:07:00,69.7,54.7,29.87,North,0,0.0,0.0,59,0.00,,,0.00,WUHU216HW,2013-08-06 08:07:00,
2013-08-06 01:12:00,69.1,54.7,29.87,North,0,0.0,0.0,60,0.00,,,0.00,WUHU216HW,2013-08-06 08:12:00,
2013-08-06 01:17:00,68.9,54.5,29.87,North,0,0.0,0.0,60,0.00,,,0.00,WUHU216HW,2013-08-06 08:17:00,
2013-08-06 01:22:00,68.6,54.6,29.87,North,0,0.0,0.0,61,0.00,,,0.00,WUHU216HW,2013-08-06 08:22:00,
2013-08-06 01:27:00,68.4,54.5,29.87,North,0,0.0,0.0,61,0.00,,,0.00,WUHU216HW,2013-08-06 08:27:00,
2013-08-06 01:32:00,68.2,54.3,29.87,North,0,0.0,0.0,61,0.00,,,0.00,WUHU216HW,2013-08-06 08:32:00,
2013-08-06 01:37:00,68.0,54.6,29.87,North,0,0.0,0.0,62,0.00,,,0.00,WUHU216HW,2013-08-06 08:37:00,
2013-08-06 01:42:00,67.9,54.4,29.87,North,0,0.0,0.0,62,0.00,,,0.00,WUHU216HW,2013-08-06 08:42:00,
2013-08-06 01:47:00,67.7,54.2,29.87,North,0,0.0,0.0,62,0.00,,,0.00,WUHU216HW,2013-08-06 08:47:00,
2013-08-06 01:52:00,67.5,54.0,29.87,North,0,0.0,0.0,62,0.00,,,0.00,WUHU216HW,2013-08-06 08:52:00,
2013-08-06 01:57:00,67.3,54.3,29.87,North,0,0.0,0.0,63,0.00,,,0.00,WUHU216HW,2013-08-06 08:57:00,
2013-08-06 02:02:00,67.3,53.8,29.87,North,0,0.0,0.0,62,0.00,,,0.00,WUHU216HW,2013-08-06 09:02:00,
2013-08-06 02:07:00,67.0,53.9,29.87,North,0,0.0,0.0,63,0.00,,,0.00,WUHU216HW,2013-08-06 09:07:00,
2013-08-06 02:12:00,66.8,53.7,29.87,North,0,0.0,0.0,63,0.00,,,0.00,WUHU216HW,2013-08-06 09:12:00,
2013-08-06 02:17:00,66.6,53.7,29.87,North,0,0.0,0.0,63,0.00,,,0.00,WUHU216HW,2013-08-06 09:17:00,
2013-08-06 02:22:00,66.4,53.8,29.87,North,0,0.0,0.0,64,0.00,,,0.00,WUHU216HW,2013-08-06 09:22:00,
2013-08-06 02:27:00,66.2,53.6,29.87,North,0,0.0,0.0,64,0.00,,,0.00,WUHU216HW,2013-08-06 09:27:00,
2013-08-06 02:32:00,66.2,53.6,29.87,North,0,0.0,0.0,64,0.00,,,0.00,WUHU216HW,2013-08-06 09:32:00,
2013-08-06 02:37:00,66.1,53.5,29.87,North,0,0.0,0.0,64,0.00,,,0.00,WUHU216HW,2013-08-06 09:37:00,
2013-08-06 02:42:00,65.9,53.7,29.87,North,0,0.0,0.0,65,0.00,,,0.00,WUHU216HW,2013-08-06 09:42:00,
2013-08-06 02:47:00,65.7,54.0,29.87,North,0,0.0,0.0,66,0.00,,,0.00,WUHU216HW,2013-08-06 09:47:00,
2013-08-06 02:52:00,65.5,53.4,29.87,North,0,0.0,0.0,65,0.00,,,0.00,WUHU216HW,2013-08-06 09:52:00,
2013-08-06 02:57:00,65.5,53.4,29.87,North,0,0.0,0.0,65,0.00,,,0.00,WUHU216HW,2013-08-06 09:57:00,
2013-08-06 03:02:00,65.3,53.6,29.87,North,0,0.0,0.0,66,0.00,,,0.00,WUHU216HW,2013-08-06 10:02:00,
2013-08-06 03:07:00,65.2,53.5,29.87,North,0,0.0,0.0,66,0.00,,,0.00,WUHU216HW,2013-08-06 10:07:00,
2013-08-06 03:12:00,65.2,53.1,29.87,North,0,0.0,0.0,65,0.00,,,0.00,WUHU216HW,2013-08-06 10:12:00,
2013-08-06 03:17:00,65.0,52.9,29.87,North,0,0.0,0.0,65,0.00,,,0.00,WUHU216HW,2013-08-06 10:17:00,
2013-08-06 03:22:00,64.8,52.8,29.87,North,0,0.0,0.0,65,0.00,,,0.00,WUHU216HW,2013-08-06 10:22:00,
2013-08-06 03:27:00,64.6,53.0,29.87,North,0,0.0,0.0,66,0.00,,,0.00,WUHU216HW,2013-08-06 10:27:00,
2013-08-06 03:32:00,64.3,53.1,29.87,North,0,0.0,0.0,67,0.00,,,0.00,WUHU216HW,2013-08-06 10:32:00,
2013-08-06 03:37:00,64.3,53.1,29.87,North,0,0.0,0.0,67,0.00,,,0.00,WUHU216HW,2013-08-06 10:37:00,
2013-08-06 03:42:00,64.3,53.5,29.87,North,0,0.0,0.0,68,0.00,,,0.00,WUHU216HW,2013-08-06 10:42:00,
2013-08-06 03:47:00,64.3,53.9,29.88,North,0,0.0,0.0,69,0.00,,,0.00,WUHU216HW,2013-08-06 10:47:00,
2013-08-06 03:52:00,64.4,53.6,29.88,North,0,0.0,0.0,68,0.00,,,0.00,WUHU216HW,2013-08-06 10:52:00,
2013-08-06 03:57:00,64.3,53.1,29.88,North,0,0.0,0.0,67,0.00,,,0.00,WUHU216HW,2013-08-06 10:57:00,
2013-08-06 04:02:00,63.9,53.2,29.88,North,0,0.0,0.0,68,0.00,,,0.00,WUHU216HW,2013-08-06 11:02:00,
2013-08-06 04:07:00,63.7,53.0,29.88,North,0,0.0,0.0,68,0.00,,,0.00,WUHU216HW,2013-08-06 11:07:00,
2013-08-06 04:12:00,63.5,53.2,29.87,North,0,0.0,0.0,69,0.00,,,0.00,WUHU216HW,2013-08-06 11:12:00,
2013-08-06 04:17:00,63.4,53.0,29.88,North,0,0.0,0.0,69,0.00,,,0.00,WUHU216HW,2013-08-06 11:17:00,
2013-08-06 04:22:00,63.4,53.0,29.88,North,0,0.0,0.0,69,0.00,,,0.00,WUHU216HW,2013-08-06 11:22:00,
2013-08-06 04:27:00,63.4,53.5,29.88,North,0,0.0,0.0,70,0.00,,,0.00,WUHU216HW,2013-08-06 11:27:00,
2013-08-06 04:32:00,63.4,53.5,29.88,North,0,0.0,0.0,70,0.00,,,0.00,WUHU216HW,2013-08-06 11:32:00,
2013-08-06 04:37:00,63.4,53.5,29.88,North,0,0.0,0.0,70,0.00,,,0.00,WUHU216HW,2013-08-06 11:37:00,
2013-08-06 04:42:00,63.4,53.5,29.88,North,0,0.0,0.0,70,0.00,,,0.00,WUHU216HW,2013-08-06 11:42:00,
2013-08-06 04:47:00,63.5,53.6,29.88,North,0,0.0,0.0,70,0.00,,,0.00,WUHU216HW,2013-08-06 11:47:00,
2013-08-06 04:52:00,63.4,53.5,29.88,North,0,0.0,0.0,70,0.00,,,0.00,WUHU216HW,2013-08-06 11:52:00,
2013-08-06 04:57:00,63.2,54.0,29.88,North,0,0.0,0.0,72,0.00,,,0.00,WUHU216HW,2013-08-06 11:57:00,
2013-08-06 05:02:00,63.7,54.2,29.88,North,0,0.0,0.0,71,0.00,,,0.00,WUHU216HW,2013-08-06 12:02:00,
2013-08-06 05:07:00,64.1,54.2,29.88,North,0,0.0,0.0,70,0.00,,,0.00,WUHU216HW,2013-08-06 12:07:00,
2013-08-06 05:12:00,63.7,53.8,29.89,North,0,0.0,0.0,70,0.00,,,0.00,WUHU216HW,2013-08-06 12:12:00,
2013-08-06 05:17:00,63.4,53.5,29.89,North,0,0.0,0.0,70,0.00,,,0.00,WUHU216HW,2013-08-06 12:17:00,
2013-08-06 05:22:00,63.0,53.5,29.89,North,0,0.0,0.0,71,0.00,,,0.00,WUHU216HW,2013-08-06 12:22:00,
2013-08-06 05:27:00,62.8,53.3,29.89,North,0,0.0,0.0,71,0.00,,,0.00,WUHU216HW,2013-08-06 12:27:00,
2013-08-06 05:32:00,62.6,53.5,29.89,North,0,0.0,0.0,72,0.00,,,0.00,WUHU216HW,2013-08-06 12:32:00,
2013-08-06 05:37:00,62.6,53.8,29.90,North,0,0.0,0.0,73,0.00,,,0.00,WUHU216HW,2013-08-06 12:37:00,
2013-08-06 05:42:00,62.6,53.5,29.90,North,0,0.0,0.0,72,0.00,,,0.00,WUHU216HW,2013-08-06 12:42:00,
2013-08-06 05:47:00,62.5,53.6,29.90,North,0,0.0,0.0,73,0.00,,,0.00,WUHU216HW,2013-08-06 12:47:00,
2013-08-06 05:52:00,62.5,53.6,29.90,North,0,0.0,0.0,73,0.00,,,0.00,WUHU216HW,2013-08-06 12:52:00,
2013-08-06 05:57:00,62.3,53.5,29.90,North,0,0.0,0.0,73,0.00,,,0.00,WUHU216HW,2013-08-06 12:57:00,
2013-08-06 06:02:00,62.3,53.5,29.91,North,0,0.0,0.0,73,0.00,,,0.00,WUHU216HW,2013-08-06 13:02:00,
2013-08-06 06:07:00,62.3,53.5,29.90,North,0,0.0,0.0,73,0.00,,,0.00,WUHU216HW,2013-08-06 13:07:00,
2013-08-06 06:12:00,62.1,53.4,29.91,North,0,0.0,0.0,73,0.00,,,0.00,WUHU216HW,2013-08-06 13:12:00,
2013-08-06 06:17:00,61.9,53.2,29.91,North,0,0.0,0.0,73,0.00,,,0.00,WUHU216HW,2013-08-06 13:17:00,
2013-08-06 06:22:00,61.7,53.4,29.91,North,0,0.0,0.0,74,0.00,,,0.00,WUHU216HW,2013-08-06 13:22:00,
2013-08-06 06:27:00,61.7,53.4,29.91,North,0,0.0,0.0,74,0.00,,,0.00,WUHU216HW,2013-08-06 13:27:00,
2013-08-06 06:32:00,61.7,53.7,29.91,North,0,0.0,0.0,75,0.00,,,0.00,WUHU216HW,2013-08-06 13:32:00,
2013-08-06 06:37:00,61.7,53.7,29.92,North,0,0.0,0.0,75,0.00,,,0.00,WUHU216HW,2013-08-06 13:37:00,
2013-08-06 06:42:00,61.9,53.9,29.92,North,0,0.0,0.0,75,0.00,,,0.00,WUHU216HW,2013-08-06 13:42:00,
2013-08-06 06:47:00,62.3,54.2,29.92,North,0,0.0,0.0,75,0.00,,,0.00,WUHU216HW,2013-08-06 13:47:00,
2013-08-06 06:52:00,62.5,54.4,29.92,North,0,0.0,0.0,75,0.00,,,0.00,WUHU216HW,2013-08-06 13:52:00,
2013-08-06 06:57:00,63.0,55.3,29.92,North,0,0.0,0.0,76,0.00,,,0.00,WUHU216HW,2013-08-06 13:57:00,
2013-08-06 07:02:00,63.2,55.1,29.92,North,0,0.0,0.0,75,0.00,,,0.00,WUHU216HW,2013-08-06 14:02:00,
2013-08-06 07:08:00,63.5,55.4,29.92,North,0,0.0,0.0,75,0.00,,,0.00,WUHU216HW,2013-08-06 14:08:00,
2013-08-06 07:13:00,64.3,55.8,29.92,North,0,0.0,0.0,74,0.00,,,0.00,WUHU216HW,2013-08-06 14:13:00,
2013-08-06 07:18:00,64.8,56.4,29.92,North,0,0.0,0.0,74,0.00,,,0.00,WUHU216HW,2013-08-06 14:18:00,
2013-08-06 07:23:00,65.3,56.4,29.92,North,0,0.0,0.0,73,0.00,,,0.00,WUHU216HW,2013-08-06 14:23:00,
2013-08-06 07:28:00,65.7,56.4,29.93,North,0,0.0,0.0,72,0.00,,,0.00,WUHU216HW,2013-08-06 14:28:00,
2013-08-06 07:33:00,66.1,56.3,29.93,North,0,0.0,0.0,71,0.00,,,0.00,WUHU216HW,2013-08-06 14:33:00,
2013-08-06 07:38:00,66.6,56.5,29.93,North,0,0.0,0.0,70,0.00,,,0.00,WUHU216HW,2013-08-06 14:38:00,
2013-08-06 07:43:00,67.0,56.9,29.93,North,0,0.0,0.0,70,0.00,,,0.00,WUHU216HW,2013-08-06 14:43:00,
2013-08-06 07:48:00,67.7,57.2,29.93,North,0,0.0,0.0,69,0.00,,,0.00,WUHU216HW,2013-08-06 14:48:00,
2013-08-06 07:53:00,68.0,56.7,29.93,North,0,0.0,0.0,67,0.00,,,0.00,WUHU216HW,2013-08-06 14:53:00,
2013-08-06 07:58:00,68.4,56.6,29.93,North,0,0.0,0.0,66,0.00,,,0.00,WUHU216HW,2013-08-06 14:58:00,
2013-08-06 08:03:00,68.9,57.1,29.93,North,0,0.0,0.0,66,0.00,,,0.00,WUHU216HW,2013-08-06 15:03:00,
2013-08-06 08:08:00,69.3,57.0,29.93,North,0,0.0,0.0,65,0.00,,,0.00,WUHU216HW,2013-08-06 15:08:00,
2013-08-06 08:13:00,69.7,57.3,29.93,North,0,0.0,0.0,65,0.00,,,0.00,WUHU216HW,2013-08-06 15:13:00,
2013-08-06 08:18:00,70.0,57.2,29.93,North,0,0.0,0.0,64,0.00,,,0.00,WUHU216HW,2013-08-06 15:18:00,
2013-08-06 08:23:00,70.6,57.3,29.94,North,0,0.0,0.0,63,0.00,,,0.00,WUHU216HW,2013-08-06 15:23:00,
2013-08-06 08:28:00,71.1,57.9,29.94,North,0,0.0,0.0,63,0.00,,,0.00,WUHU216HW,2013-08-06 15:28:00,
2013-08-06 08:33:00,71.6,58.3,29.94,North,0,0.0,0.0,63,0.00,,,0.00,WUHU216HW,2013-08-06 15:33:00,
2013-08-06 08:38:00,72.4,58.1,29.94,North,0,0.0,0.0,61,0.00,,,0.00,WUHU216HW,2013-08-06 15:38:00,
2013-08-06 08:43:00,72.5,57.9,29.94,North,0,0.0,0.0,60,0.00,,,0.00,WUHU216HW,2013-08-06 15:43:00,
2013-08-06 08:48:00,72.9,57.7,29.94,North,0,0.0,0.0,59,0.00,,,0.00,WUHU216HW,2013-08-06 15:48:00,
2013-08-06 08:53:00,73.6,57.9,29.94,North,0,0.0,0.0,58,0.00,,,0.00,WUHU216HW,2013-08-06 15:53:00,
2013-08-06 08:58:00,74.2,57.9,29.94,North,0,0.0,0.0,57,0.00,,,0.00,WUHU216HW,2013-08-06 15:58:00,
2013-08-06 09:03:00,74.7,58.0,29.94,SSE,151,2.5,4.3,56,0.00,,,0.00,WUHU216HW,2013-08-06 16:03:00,
2013-08-06 09:13:00,76.0,57.6,29.93,SSE,148,3.1,4.5,53,0.00,,,0.00,WUHU216HW,2013-08-06 16:13:00,
2013-08-06 09:18:00,76.3,57.4,29.93,SSE,158,2.8,4.0,52,0.00,,,0.00,WUHU216HW,2013-08-06 16:18:00,
2013-08-06 09:23:00,76.9,57.4,29.94,SE,143,3.0,4.0,51,0.00,,,0.00,WUHU216HW,2013-08-06 16:23:00,
2013-08-06 09:28:00,77.2,57.3,29.94,SE,143,3.4,5.1,50,0.00,,,0.00,WUHU216HW,2013-08-06 16:28:00,
2013-08-06 09:33:00,77.8,57.1,29.94,SSE,166,2.9,3.8,49,0.00,,,0.00,WUHU216HW,2013-08-06 16:33:00,
2013-08-06 09:38:00,77.9,57.2,29.94,South,182,3.6,5.6,49,0.00,,,0.00,WUHU216HW,2013-08-06 16:38:00,
2013-08-06 09:43:00,77.8,56.5,29.94,SSE,160,4.5,6.5,48,0.00,,,0.00,WUHU216HW,2013-08-06 16:43:00,
2013-08-06 09:48:00,78.1,56.8,29.94,SSE,160,3.4,4.7,48,0.00,,,0.00,WUHU216HW,2013-08-06 16:48:00,
2013-08-06 09:53:00,78.1,56.8,29.94,South,170,3.3,5.6,48,0.00,,,0.00,WUHU216HW,2013-08-06 16:53:00,
2013-08-06 09:58:00,78.8,57.4,29.94,South,172,3.1,4.3,48,0.00,,,0.00,WUHU216HW,2013-08-06 16:58:00,
2013-08-06 10:03:00,79.0,57.0,29.94,SSW,197,4.4,6.7,47,0.00,,,0.00,WUHU216HW,2013-08-06 17:03:00,
2013-08-06 10:08:00,79.4,57.3,29.94,South,190,3.3,4.5,47,0.00,,,0.00,WUHU216HW,2013-08-06 17:08:00,
2013-08-06 10:13:00,80.1,58.0,29.94,South,174,3.0,4.7,47,0.00,,,0.00,WUHU216HW,2013-08-06 17:13:00,
2013-08-06 10:18:00,80.6,57.9,29.94,South,172,2.5,4.0,46,0.00,,,0.00,WUHU216HW,2013-08-06 17:18:00,
2013-08-06 10:23:00,80.8,57.4,29.94,SSE,147,3.9,5.8,45,0.00,,,0.00,WUHU216HW,2013-08-06 17:23:00,
2013-08-06 10:28:00,80.8,57.4,29.94,South,184,3.8,5.4,45,0.00,,,0.00,WUHU216HW,2013-08-06 17:28:00,
2013-08-06 10:33:00,81.2,57.7,29.94,SSE,164,3.6,5.4,45,0.00,,,0.00,WUHU216HW,2013-08-06 17:33:00,
2013-08-06 10:38:00,81.7,58.2,29.94,SSE,162,3.3,5.4,45,0.00,,,0.00,WUHU216HW,2013-08-06 17:38:00,
2013-08-06 10:43:00,82.1,57.3,29.94,South,179,3.3,4.3,43,0.00,,,0.00,WUHU216HW,2013-08-06 17:43:00,
2013-08-06 10:48:00,82.4,57.6,29.94,South,178,3.2,4.7,43,0.00,,,0.00,WUHU216HW,2013-08-06 17:48:00,
2013-08-06 10:53:00,82.6,57.8,29.94,South,178,3.0,3.8,43,0.00,,,0.00,WUHU216HW,2013-08-06 17:53:00,
2013-08-06 10:58:00,83.3,57.9,29.94,SSE,166,3.2,5.4,42,0.00,,,0.00,WUHU216HW,2013-08-06 17:58:00,
2013-08-06 11:03:00,83.7,58.1,29.93,South,174,3.3,5.4,42,0.00,,,0.00,WUHU216HW,2013-08-06 18:03:00,
2013-08-06 11:08:00,84.2,58.1,29.93,South,172,2.4,3.8,41,0.00,,,0.00,WUHU216HW,2013-08-06 18:08:00,
2013-08-06 11:13:00,84.6,58.4,29.93,SSW,205,2.3,4.3,41,0.00,,,0.00,WUHU216HW,2013-08-06 18:13:00,
2013-08-06 11:18:00,84.4,57.6,29.93,South,181,3.4,5.4,40,0.00,,,0.00,WUHU216HW,2013-08-06 18:18:00,
2013-08-06 11:23:00,84.6,58.4,29.93,South,181,3.1,4.7,41,0.00,,,0.00,WUHU216HW,2013-08-06 18:23:00,
2013-08-06 11:28:00,84.6,58.4,29.93,South,186,3.3,4.5,41,0.00,,,0.00,WUHU216HW,2013-08-06 18:28:00,
2013-08-06 11:33:00,85.3,58.4,29.93,SSW,205,2.8,4.9,40,0.00,,,0.00,WUHU216HW,2013-08-06 18:33:00,
2013-08-06 11:38:00,85.5,58.6,29.93,SW,216,1.5,4.0,40,0.00,,,0.00,WUHU216HW,2013-08-06 18:38:00,
2013-08-06 11:43:00,85.7,58.7,29.93,SSW,197,2.8,4.0,40,0.00,,,0.00,WUHU216HW,2013-08-06 18:43:00,
2013-08-06 11:48:00,86.0,59.7,29.92,SSE,159,3.1,4.7,41,0.00,,,0.00,WUHU216HW,2013-08-06 18:48:00,
2013-08-06 11:53:00,86.6,60.1,29.92,SSW,192,2.7,4.9,41,0.00,,,0.00,WUHU216HW,2013-08-06 18:53:00,
2013-08-06 11:58:00,86.8,58.9,29.92,South,188,2.9,4.9,39,0.00,,,0.00,WUHU216HW,2013-08-06 18:58:00,
2013-08-06 12:03:00,86.8,58.9,29.92,South,185,2.3,4.3,39,0.00,,,0.00,WUHU216HW,2013-08-06 19:03:00,
2013-08-06 12:08:00,86.8,58.9,29.92,SSW,205,2.3,4.0,39,0.00,,,0.00,WUHU216HW,2013-08-06 19:08:00,
2013-08-06 12:13:00,86.8,58.1,29.92,SW,218,2.2,4.5,38,0.00,,,0.00,WUHU216HW,2013-08-06 19:13:00,
2013-08-06 12:18:00,87.3,59.4,29.92,SSW,212,2.6,5.4,39,0.00,,,0.00,WUHU216HW,2013-08-06 19:18:00,
2013-08-06 12:23:00,87.7,58.9,29.92,SSW,197,2.2,4.0,38,0.00,,,0.00,WUHU216HW,2013-08-06 19:23:00,
2013-08-06 12:28:00,88.0,58.4,29.92,SSW,211,2.2,4.0,37,0.00,,,0.00,WUHU216HW,2013-08-06 19:28:00,
2013-08-06 12:33:00,87.8,57.4,29.92,WNW,283,2.1,4.3,36,0.00,,,0.00,WUHU216HW,2013-08-06 19:33:00,
2013-08-06 12:38:00,88.4,57.1,29.92,South,187,2.2,3.4,35,0.00,,,0.00,WUHU216HW,2013-08-06 19:38:00,
2013-08-06 12:43:00,88.7,56.6,29.91,SW,219,2.0,3.1,34,0.00,,,0.00,WUHU216HW,2013-08-06 19:43:00,
2013-08-06 12:48:00,89.1,57.7,29.91,WSW,250,1.5,3.1,35,0.00,,,0.00,WUHU216HW,2013-08-06 19:48:00,
2013-08-06 12:53:00,89.3,57.9,29.91,WSW,248,2.1,4.0,35,0.00,,,0.00,WUHU216HW,2013-08-06 19:53:00,
2013-08-06 12:58:00,89.6,58.1,29.91,SSE,168,2.1,3.4,35,0.00,,,0.00,WUHU216HW,2013-08-06 19:58:00,
2013-08-06 13:03:00,89.6,58.1,29.91,WNW,287,2.8,4.5,35,0.00,,,0.00,WUHU216HW,2013-08-06 20:03:00,
2013-08-06 13:08:00,90.2,58.6,29.91,SSW,198,2.7,4.0,35,0.00,,,0.00,WUHU216HW,2013-08-06 20:08:00,
2013-08-06 13:13:00,90.4,58.8,29.91,SW,235,1.4,2.9,35,0.00,,,0.00,WUHU216HW,2013-08-06 20:13:00,
2013-08-06 13:18:00,90.7,58.3,29.90,SW,235,2.0,3.4,34,0.00,,,0.00,WUHU216HW,2013-08-06 20:18:00,
2013-08-06 13:23:00,91.1,57.1,29.90,SSW,211,2.0,4.0,32,0.00,,,0.00,WUHU216HW,2013-08-06 20:23:00,
2013-08-06 13:28:00,91.3,56.4,29.90,South,191,1.8,3.6,31,0.00,,,0.00,WUHU216HW,2013-08-06 20:28:00,
2013-08-06 13:33:00,91.3,56.4,29.90,SW,233,1.9,4.0,31,0.00,,,0.00,WUHU216HW,2013-08-06 20:33:00,
2013-08-06 13:38:00,91.6,57.5,29.90,WNW,294,2.5,4.0,32,0.00,,,0.00,WUHU216HW,2013-08-06 20:38:00,
2013-08-06 13:43:00,92.0,57.1,29.89,West,263,2.7,6.3,31,0.00,,,0.00,WUHU216HW,2013-08-06 20:43:00,
2013-08-06 13:48:00,92.7,58.4,29.89,West,275,1.9,3.8,32,0.00,,,0.00,WUHU216HW,2013-08-06 20:48:00,
2013-08-06 13:53:00,93.1,58.7,29.89,WNW,282,2.5,4.0,32,0.00,,,0.00,WUHU216HW,2013-08-06 20:53:00,
2013-08-06 13:58:00,93.6,58.4,29.89,West,263,2.8,4.9,31,0.00,,,0.00,WUHU216HW,2013-08-06 20:58:00,
2013-08-06 14:03:00,93.4,58.2,29.89,NW,306,3.2,5.8,31,0.00,,,0.00,WUHU216HW,2013-08-06 21:03:00,
2013-08-06 14:08:00,93.6,57.6,29.89,West,272,2.6,4.9,30,0.00,,,0.00,WUHU216HW,2013-08-06 21:08:00,
2013-08-06 14:13:00,93.8,56.6,29.89,WNW,286,3.5,5.4,29,0.00,,,0.00,WUHU216HW,2013-08-06 21:13:00,
2013-08-06 14:18:00,93.6,56.4,29.88,WNW,295,2.8,5.4,29,0.00,,,0.00,WUHU216HW,2013-08-06 21:18:00,
2013-08-06 14:23:00,93.8,57.7,29.88,WNW,303,2.1,4.9,30,0.00,,,0.00,WUHU216HW,2013-08-06 21:23:00,
2013-08-06 14:28:00,94.0,56.8,29.88,West,262,3.0,6.0,29,0.00,,,0.00,WUHU216HW,2013-08-06 21:28:00,
2013-08-06 14:33:00,94.5,57.2,29.88,South,171,2.1,4.0,29,0.00,,,0.00,WUHU216HW,2013-08-06 21:33:00,
2013-08-06 14:38:00,94.9,56.4,29.88,West,263,2.6,4.9,28,0.00,,,0.00,WUHU216HW,2013-08-06 21:38:00,
2013-08-06 14:43:00,94.7,57.4,29.88,WNW,300,2.4,6.0,29,0.00,,,0.00,WUHU216HW,2013-08-06 21:43:00,
2013-08-06 14:48:00,95.0,55.5,29.87,WNW,283,2.6,4.5,27,0.00,,,0.00,WUHU216HW,2013-08-06 21:48:00,
2013-08-06 14:53:00,95.2,54.5,29.87,WNW,301,2.5,4.7,26,0.00,,,0.00,WUHU216HW,2013-08-06 21:53:00,
2013-08-06 14:58:00,95.0,54.4,29.87,NW,311,3.5,6.5,26,0.00,,,0.00,WUHU216HW,2013-08-06 21:58:00,
2013-08-06 15:03:00,95.4,54.7,29.87,WNW,297,3.3,5.4,26,0.00,,,0.00,WUHU216HW,2013-08-06 22:03:00,
2013-08-06 15:08:00,95.4,54.7,29.87,WNW,299,2.8,5.4,26,0.00,,,0.00,WUHU216HW,2013-08-06 22:08:00,
2013-08-06 15:13:00,95.6,53.7,29.87,WNW,301,2.8,5.4,25,0.00,,,0.00,WUHU216HW,2013-08-06 22:13:00,
2013-08-06 15:18:00,95.6,53.7,29.87,WNW,303,3.5,8.5,25,0.00,,,0.00,WUHU216HW,2013-08-06 22:18:00,
2013-08-06 15:23:00,95.4,53.6,29.87,NW,314,4.6,6.7,25,0.00,,,0.00,WUHU216HW,2013-08-06 22:23:00,
2013-08-06 15:28:00,95.4,53.6,29.87,WNW,290,4.1,6.3,25,0.00,,,0.00,WUHU216HW,2013-08-06 22:28:00,
2013-08-06 15:33:00,95.6,53.7,29.86,WNW,294,3.2,5.4,25,0.00,,,0.00,WUHU216HW,2013-08-06 22:33:00,
2013-08-06 15:38:00,95.8,52.7,29.86,WNW,297,3.4,6.9,24,0.00,,,0.00,WUHU216HW,2013-08-06 22:38:00,
2013-08-06 15:43:00,95.8,53.9,29.86,WNW,297,3.5,4.9,25,0.00,,,0.00,WUHU216HW,2013-08-06 22:43:00,
2013-08-06 15:48:00,96.1,54.2,29.86,NW,306,3.7,5.8,25,0.00,,,0.00,WUHU216HW,2013-08-06 22:48:00,
2013-08-06 15:53:00,95.6,53.7,29.86,WNW,301,4.7,6.9,25,0.00,,,0.00,WUHU216HW,2013-08-06 22:53:00,
2013-08-06 15:58:00,95.8,53.9,29.86,NW,307,4.1,5.6,25,0.00,,,0.00,WUHU216HW,2013-08-06 22:58:00,
2013-08-06 16:03:00,95.8,52.7,29.86,NW,321,2.9,6.3,24,0.00,,,0.00,WUHU216HW,2013-08-06 23:03:00,
2013-08-06 16:08:00,95.9,52.9,29.86,WNW,303,3.7,7.4,24,0.00,,,0.00,WUHU216HW,2013-08-06 23:08:00,
2013-08-06 16:13:00,95.9,54.0,29.86,NW,313,3.2,6.0,25,0.00,,,0.00,WUHU216HW,2013-08-06 23:13:00,
2013-08-06 16:18:00,95.9,54.0,29.86,WNW,292,2.7,4.7,25,0.00,,,0.00,WUHU216HW,2013-08-06 23:18:00,
2013-08-06 16:23:00,95.8,52.7,29.86,WNW,298,4.5,6.5,24,0.00,,,0.00,WUHU216HW,2013-08-06 23:23:00,
2013-08-06 16:28:00,95.8,52.7,29.86,NW,307,3.9,7.2,24,0.00,,,0.00,WUHU216HW,2013-08-06 23:28:00,
2013-08-06 16:33:00,95.8,52.7,29.85,NNW,334,3.3,5.1,24,0.00,,,0.00,WUHU216HW,2013-08-06 23:33:00,
2013-08-06 16:38:00,95.9,52.9,29.85,NW,308,2.4,4.7,24,0.00,,,0.00,WUHU216HW,2013-08-06 23:38:00,
2013-08-06 16:43:00,96.5,54.6,29.85,WNW,300,1.7,4.0,25,0.00,,,0.00,WUHU216HW,2013-08-06 23:43:00,
2013-08-06 16:48:00,96.5,53.4,29.85,WNW,302,4.1,6.0,24,0.00,,,0.00,WUHU216HW,2013-08-06 23:48:00,
2013-08-06 16:53:00,96.3,52.1,29.85,NW,313,1.7,2.7,23,0.00,,,0.00,WUHU216HW,2013-08-06 23:53:00,
2013-08-06 16:58:00,95.8,51.7,29.85,NW,312,2.7,5.8,23,0.00,,,0.00,WUHU216HW,2013-08-06 23:58:00,
2013-08-06 17:03:00,95.6,51.5,29.85,NW,307,3.1,4.7,23,0.00,,,0.00,WUHU216HW,2013-08-07 00:03:00,
2013-08-06 17:08:00,95.4,51.4,29.85,NW,304,3.4,4.9,23,0.00,,,0.00,WUHU216HW,2013-08-07 00:08:00,
2013-08-06 17:13:00,95.4,51.4,29.85,NW,316,2.4,5.6,23,0.00,,,0.00,WUHU216HW,2013-08-07 00:13:00,
2013-08-06 17:18:00,95.2,51.2,29.85,NW,325,2.1,3.8,23,0.00,,,0.00,WUHU216HW,2013-08-07 00:18:00,
2013-08-06 17:23:00,94.9,51.0,29.85,NW,317,2.1,4.0,23,0.00,,,0.00,WUHU216HW,2013-08-07 00:23:00,
2013-08-06 17:28:00,95.0,51.0,29.85,NW,310,2.0,3.8,23,0.00,,,0.00,WUHU216HW,2013-08-07 00:28:00,
2013-08-06 17:33:00,95.0,51.0,29.85,NW,307,3.9,5.4,23,0.00,,,0.00,WUHU216HW,2013-08-07 00:33:00,
2013-08-06 17:38:00,94.9,52.0,29.85,NW,325,1.9,3.8,24,0.00,,,0.00,WUHU216HW,2013-08-07 00:38:00,
2013-08-06 17:43:00,94.7,51.8,29.84,NW,319,2.5,5.1,24,0.00,,,0.00,WUHU216HW,2013-08-07 00:43:00,
2013-08-06 17:48:00,95.0,52.2,29.84,NW,311,3.0,5.4,24,0.00,,,0.00,WUHU216HW,2013-08-07 00:48:00,
2013-08-06 17:53:00,94.7,51.8,29.84,NNW,335,1.2,2.5,24,0.00,,,0.00,WUHU216HW,2013-08-07 00:53:00,
2013-08-06 17:58:00,94.5,51.8,29.84,WNW,298,2.9,4.7,24,0.00,,,0.00,WUHU216HW,2013-08-07 00:58:00,
2013-08-06 18:03:00,94.5,51.8,29.84,NW,309,1.9,4.5,24,0.00,,,0.00,WUHU216HW,2013-08-07 01:03:00,
2013-08-06 18:08:00,94.5,51.8,29.84,NW,311,2.3,4.0,24,0.00,,,0.00,WUHU216HW,2013-08-07 01:08:00,
2013-08-06 18:13:00,94.3,50.5,29.84,NW,309,2.5,4.3,23,0.00,,,0.00,WUHU216HW,2013-08-07 01:13:00,
2013-08-06 18:18:00,94.0,51.3,29.84,NW,310,2.1,4.5,24,0.00,,,0.00,WUHU216HW,2013-08-07 01:18:00,
2013-08-06 18:23:00,94.0,52.4,29.84,WNW,302,2.2,3.1,25,0.00,,,0.00,WUHU216HW,2013-08-07 01:23:00,
2013-08-06 18:28:00,93.8,51.1,29.84,NNW,335,1.2,2.5,24,0.00,,,0.00,WUHU216HW,2013-08-07 01:28:00,
2013-08-06 18:33:00,93.6,50.9,29.84,NW,315,1.4,4.0,24,0.00,,,0.00,WUHU216HW,2013-08-07 01:33:00,
2013-08-06 18:38:00,93.2,51.8,29.84,NW,314,1.0,2.5,25,0.00,,,0.00,WUHU216HW,2013-08-07 01:38:00,
2013-08-06 18:43:00,93.1,52.8,29.84,NW,315,1.6,3.6,26,0.00,,,0.00,WUHU216HW,2013-08-07 01:43:00,
2013-08-06 18:48:00,92.9,52.6,29.84,NW,310,2.4,3.4,26,0.00,,,0.00,WUHU216HW,2013-08-07 01:48:00,
2013-08-06 18:53:00,92.9,53.6,29.84,NW,314,1.8,2.9,27,0.00,,,0.00,WUHU216HW,2013-08-07 01:53:00,
2013-08-06 18:58:00,92.7,53.6,29.84,NW,318,1.6,3.6,27,0.00,,,0.00,WUHU216HW,2013-08-07 01:58:00,
2013-08-06 19:03:00,92.5,53.4,29.84,NW,318,1.3,2.5,27,0.00,,,0.00,WUHU216HW,2013-08-07 02:03:00,
2013-08-06 19:08:00,92.5,53.4,29.84,NW,315,1.4,2.5,27,0.00,,,0.00,WUHU216HW,2013-08-07 02:08:00,
2013-08-06 19:13:00,92.3,54.4,29.84,NW,319,0.7,1.8,28,0.00,,,0.00,WUHU216HW,2013-08-07 02:13:00,
2013-08-06 19:19:00,92.0,55.2,29.84,NNW,328,0.6,1.8,29,0.00,,,0.00,WUHU216HW,2013-08-07 02:19:00,
2013-08-06 19:24:00,91.4,54.7,29.84,NNW,342,0.4,1.1,29,0.00,,,0.00,WUHU216HW,2013-08-07 02:24:00,
2013-08-06 19:29:00,90.9,54.2,29.84,NNW,338,0.4,1.1,29,0.00,,,0.00,WUHU216HW,2013-08-07 02:29:00,
2013-08-06 19:34:00,90.4,56.4,29.85,North,352,0.4,1.1,32,0.00,,,0.00,WUHU216HW,2013-08-07 02:34:00,
2013-08-06 19:39:00,89.6,55.8,29.85,North,359,0.4,0.7,32,0.00,,,0.00,WUHU216HW,2013-08-07 02:39:00,
2013-08-06 19:44:00,88.9,55.9,29.85,NNW,347,0.3,0.9,33,0.00,,,0.00,WUHU216HW,2013-08-07 02:44:00,
2013-08-06 19:49:00,88.4,56.3,29.85,North,0,0.2,0.2,34,0.00,,,0.00,WUHU216HW,2013-08-07 02:49:00,
2013-08-06 19:54:00,88.0,56.0,29.85,North,0,0.0,0.0,34,0.00,,,0.00,WUHU216HW,2013-08-07 02:54:00,
2013-08-06 19:59:00,87.5,55.5,29.85,North,0,0.2,0.2,34,0.00,,,0.00,WUHU216HW,2013-08-07 02:59:00,
2013-08-06 20:04:00,87.1,56.8,29.85,North,0,0.2,0.2,36,0.00,,,0.00,WUHU216HW,2013-08-07 03:04:00,
2013-08-06 20:09:00,86.6,57.2,29.85,North,0,0.0,0.0,37,0.00,,,0.00,WUHU216HW,2013-08-07 03:09:00,
2013-08-06 20:14:00,86.2,56.8,29.86,North,0,0.0,0.0,37,0.00,,,0.00,WUHU216HW,2013-08-07 03:14:00,
2013-08-06 20:19:00,85.7,57.2,29.86,North,0,0.0,0.0,38,0.00,,,0.00,WUHU216HW,2013-08-07 03:19:00,
2013-08-06 20:24:00,84.8,56.4,29.86,NW,324,0.9,1.6,38,0.00,,,0.00,WUHU216HW,2013-08-07 03:24:00,
2013-08-06 20:29:00,84.2,55.8,29.86,WNW,289,1.0,1.8,38,0.00,,,0.00,WUHU216HW,2013-08-07 03:29:00,
2013-08-06 20:34:00,84.1,55.7,29.86,WNW,282,0.9,1.3,38,0.00,,,0.00,WUHU216HW,2013-08-07 03:34:00,
2013-08-06 20:39:00,83.9,56.4,29.87,WNW,293,0.4,0.4,39,0.00,,,0.00,WUHU216HW,2013-08-07 03:39:00,
2013-08-06 20:44:00,83.2,56.4,29.87,North,0,0.0,0.0,40,0.00,,,0.00,WUHU216HW,2013-08-07 03:44:00,
2013-08-06 20:49:00,82.4,56.4,29.87,East,90,0.4,0.4,41,0.00,,,0.00,WUHU216HW,2013-08-07 03:49:00,
2013-08-06 20:54:00,81.5,56.3,29.87,East,86,0.4,0.7,42,0.00,,,0.00,WUHU216HW,2013-08-07 03:54:00,
2013-08-06 20:59:00,80.8,56.2,29.87,East,90,0.5,0.9,43,0.00,,,0.00,WUHU216HW,2013-08-07 03:59:00,
2013-08-06 21:04:00,80.5,55.9,29.87,East,90,0.5,1.1,43,0.00,,,0.00,WUHU216HW,2013-08-07 04:04:00,
2013-08-06 21:09:00,80.1,55.5,29.88,East,90,1.1,1.3,43,0.00,,,0.00,WUHU216HW,2013-08-07 04:09:00,
2013-08-06 21:14:00,79.7,55.8,29.88,NNE,13,0.8,1.3,44,0.00,,,0.00,WUHU216HW,2013-08-07 04:14:00,
2013-08-06 21:19:00,79.6,56.3,29.88,North,9,0.5,0.9,45,0.00,,,0.00,WUHU216HW,2013-08-07 04:19:00,
2013-08-06 21:24:00,79.2,56.0,29.88,North,0,0.2,0.2,45,0.00,,,0.00,WUHU216HW,2013-08-07 04:24:00,
2013-08-06 21:29:00,79.2,56.0,29.88,North,0,0.0,0.0,45,0.00,,,0.00,WUHU216HW,2013-08-07 04:29:00,
2013-08-06 21:34:00,79.2,56.0,29.88,North,0,0.0,0.0,45,0.00,,,0.00,WUHU216HW,2013-08-07 04:34:00,